Location: Wolf Lake
(46.8518°N, 80.6381°W)
Time: 23:37:44
(UTC-04:00)

ISS - Visible Passes

Search period start: 25 September 2017 00:00
Search period end: 05 October 2017 00:00
Orbit: 401 x 407 km, 51.6° (Epoch: 26 September)

Date Brightness Start Highest point End Pass type
(mag) Time Alt. Az. Time Alt. Az. Time Alt. Az.
25 Sep -1.6 19:55:39 10° SSE 19:56:41 11° SE 19:57:35 10° ESE visible
25 Sep -1.4 21:29:21 10° SW 21:30:17 17° SW 21:30:17 17° SW visible
26 Sep -3.3 20:37:16 10° SW 20:40:20 38° SE 20:40:35 38° SE visible
27 Sep -2.4 19:45:28 10° SSW 19:48:06 23° SE 19:50:42 10° E visible
27 Sep -2.6 21:21:05 10° WSW 21:23:22 41° W 21:23:22 41° W visible
28 Sep -3.9 20:28:41 10° WSW 20:31:58 78° SSE 20:33:19 32° ENE visible
28 Sep -0.5 22:05:34 10° WNW 22:05:59 13° WNW 22:05:59 13° WNW visible
29 Sep -3.4 19:36:29 10° SW 19:39:38 46° SE 19:42:47 10° ENE visible
29 Sep -2.7 21:12:57 10° W 21:15:48 43° NW 21:15:48 43° NW visible
30 Sep -3.4 20:20:25 10° WSW 20:23:39 61° NNW 20:25:32 23° NE visible
30 Sep -0.6 21:57:28 10° WNW 21:58:11 15° WNW 21:58:11 15° WNW visible
01 Oct -3.8 19:27:56 10° WSW 19:31:12 90° W 19:34:30 10° ENE visible
01 Oct -2.5 21:04:52 10° WNW 21:07:50 35° NNW 21:07:50 35° NNW visible
02 Oct -2.8 20:12:15 10° W 20:15:22 41° NNW 20:17:26 18° NE visible
02 Oct -0.7 21:49:14 10° WNW 21:50:04 16° NW 21:50:04 16° NW visible
03 Oct -2.5 20:56:42 10° WNW 20:59:37 33° N 20:59:37 33° N visible
04 Oct -2.6 20:04:04 10° WNW 20:07:07 34° N 20:09:09 17° NE visible
04 Oct -0.9 21:40:50 10° WNW 21:41:47 17° NW 21:41:47 17° NW visible
